Hourly Data Report for October 02, 2016

All times are specified in Local Standard Time (LST). Add 1 hour to adjust for Daylight Saving Time where and when it is observed.

CORAL HARBOUR A
NUNAVUT

64°11'36.000" N
83°21'34.000" W
62.20 m
2301002
71915
YZS

Download Data

Hourly Data (October 2016)
Hourly Data Report for October 2, 2016
Temp Definition
°C
Dew Point Temp Definition
°C
Rel Hum Definition
%
Wind Dir Definition
10's deg

Wind Spd Definition
km/h
Visibility Definition
km
Stn Press Definition
kPa
Hmdx Definition


Wind Chill Definition


Weather Definition


TIME
00:00 Legend Double Dagger -1.0 -3.2 85 34 18 24.1 101.24   -6 LegendNANA
01:00 Legend Double Dagger -0.7 -3.6 81 34 27 24.1 101.29   -7 Mainly Clear
02:00 Legend Double Dagger -1.4 -4.4 80 34 30 24.1 101.31   -8 LegendNANA
03:00 Legend Double Dagger -1.9 -5.1 79 34 28 24.1 101.37   -9 Snow
04:00 Legend Double Dagger -1.9 -5.1 79 35 32 24.1 101.39   -9 Snow
05:00 Legend Double Dagger -2.2 -5.4 79 33 33 24.1 101.44   -10 Snow
06:00 Legend Double Dagger -2.3 -5.5 79 33 35 24.1 101.46   -10 LegendNANA
07:00 Legend Double Dagger -2.2 -5.2 80 35 31 24.1 101.47   -9 Mostly Cloudy
08:00 Legend Double Dagger -2.0 -5.2 79 33 28 24.1 101.49   -9 LegendNANA
09:00 Legend Double Dagger -1.3 -4.8 77 34 23 24.1 101.50   -7 LegendNANA
10:00 Legend Double Dagger -0.2 -4.3 74 34 18 24.1 101.52   -5 Mainly Clear
11:00 Legend Double Dagger 0.1 -3.8 75 34 22 24.1 101.56     LegendNANA
12:00 Legend Double Dagger 0.6 -3.2 76 31 23 24.1 101.62     LegendNANA
13:00 Legend Double Dagger 0.6 -3.0 77 34 36 24.1 101.51     Mainly Clear
14:00 Legend Double Dagger 1.3 -3.2 72 34 28 24.1 101.46     LegendNANA
15:00 Legend Double Dagger 1.9 -2.8 71 31 19 24.1 101.53     LegendNANA
16:00 Legend Double Dagger 1.2 -2.9 74 31 25 24.1 101.55     Mainly Clear
17:00 Legend Double Dagger 0.0 -3.2 79 34 19 24.1 101.50   -5 LegendNANA
18:00 Legend Double Dagger -1.0 -3.5 83 32 21 24.1 101.49   -7 LegendNANA
19:00 Legend Double Dagger -2.2 -4.1 87 29 7 24.1 101.51   -5 Mainly Clear
20:00 Legend Double Dagger -2.6 -4.3 88 32 16 24.1 101.47   -8 LegendNANA
21:00 Legend Double Dagger -3.4 -4.8 90 30 14 24.1 101.44   -8 LegendNANA
22:00 Legend Double Dagger -3.9 -5.3 90 31 14 24.1 101.38   -9 Mainly Clear
23:00 Legend Double Dagger -4.3 -5.7 90 31 10 24.1 101.32   -8 LegendNANA

Notes on Data Quality.

Legend

  • E = Estimated
  • M = Missing
  • NA = Not Available
  • ‡ = Partner data that is not subject to review by the National Climate Archives
Date modified: